Regional Weather Roundup
Issued by NWS

Home | Current Version | Previous Version | Graphics & Text | Print | Product List | Glossary On
Versions: 1 2 3 4 5 6 7 8 9 10 11 12 13 14 15 16 17 18 19 20 21 22 23 24 25 26 27 28 29 30 31 32 33 34 35 36 37 38 39 40 41 42 43 44 45 46 47 48 49 50
000
ASUS43 KTOP 310108
RWRKS

WEATHER ROUNDUP FOR KANSAS
NATIONAL WEATHER SERVICE GOODLAND KS
800 PM CDT MON MAY 30 2016

NOTE:  "FAIR" INDICATES FEW OR NO CLOUDS BELOW 12,000 FEET WITH NO
SIGNIFICANT WEATHER AND/OR OBSTRUCTIONS TO VISIBILITY.

KSZ001>006-013>018-027>032-041>047-310200-
NORTHWEST KANSAS

CITY           SKY/WX    TMP DP  RH WIND       PRES   REMARKS
GOODLAND       TSTM      61  50  67 NW29G37   29.92R
HAYS           CLOUDY    75  57  53 S13       29.86S
HILL CITY      CLOUDY    78  59  51 S13       29.84R
RUSSELL        CLEAR     74  62  66 S10       29.85F
$$

KSZ061>065-074>080-084>089-310200-
SOUTHWEST KANSAS

CITY           SKY/WX    TMP DP  RH WIND       PRES   REMARKS
DODGE CITY     CLOUDY    76  56  49 S14       29.89R
ELKHART          N/A     79  59  50 SE16        N/A
GARDEN CITY    CLOUDY    78  52  40 S12       29.86S
GREAT BEND     CLOUDY    75  57  53 SE15      29.87R
LIBERAL        CLOUDY    79  52  38 SE12      29.88F
PRATT          CLEAR     75  56  51 SE12G18   29.89S
$$

KSZ066>073-081>083-090>101-310200-
SOUTHEAST KANSAS

CITY           SKY/WX    TMP DP  RH WIND       PRES   REMARKS
CHANUTE        CLEAR     72  61  68 SE10      29.96S
COFFEYVILLE    PTCLDY    71  62  73 SE7       29.96S
HUTCHINSON     CLEAR     77  60  55 SE15      29.90R
MEDICINE LODGE   N/A     79  57  46 SE10      29.88R
NEWTON         CLEAR     73  57  56 SE14      29.95R
PARSONS        CLEAR     71  61  70 VRB3      29.97F
WICHITA INTL   PTCLDY    76  62  62 SE15      29.91R
WICHITA JABRA  CLEAR     73  63  70 SE15      29.92R
WICHITA MCCONL CLEAR     75  62  65 S15       29.92R
WINFIELD       CLEAR     73  62  68 SE10      29.94R
$$

KSZ007>012-019>026-033>040-048>060-102>105-310200-
NORTHEAST KANSAS

CITY           SKY/WX    TMP DP  RH WIND       PRES   REMARKS
CONCORDIA      CLEAR     77  60  55 S15G22    29.87S
EMPORIA        CLEAR     74  61  63 SE13      29.94R
LAWRENCE       CLEAR     75  61  61 S14       29.94R
MANHATTAN      CLEAR     77  60  55 S12       29.89R
MARYSVILLE     CLEAR     79  63  57 S16G22    29.88R
OLATHE IND     PTCLDY    73  61  65 SE10      29.96S
OLATHE EXE     PTCLDY    71  61  70 SE8       29.96F
SALINA         CLEAR     78  62  57 SE14      29.88S
TOPEKA BILLARD CLEAR     77  59  53 SE14      29.92R
TOPEKA FORBES  CLEAR     77  59  53 S13       29.92S
$$




USA.gov is the U.S. government's official web portal to all federal, state and local government web resources and services.